Location: Mountain Lakes
(44.1215°N, 71.9554°W)
Time: 13:22:27
(UTC+00:00)

Daily predictions for brighter satellites

Satellite Brightness Start Highest point End
(mag) Time Altitude Azimuth Time Altitude Azimuth Time Altitude Azimuth
Cosmos 540 Rocket 4.0 23:28:59 10° SSW 23:34:03 66° WNW 23:39:08 10° NNE
Aureole 1 Rocket 2.7 23:30:43 10° NNW 23:35:11 77° ENE 23:38:42 10° SSE
Cosmos 1844 4.0 23:30:06 10° NNW 23:35:40 74° WSW 23:41:12 10° SSE
Resurs 1-3 3.8 23:31:34 10° SSE 23:35:46 52° ENE 23:39:59 10° N
SeaSat 1 4.4 23:32:24 10° N 23:36:47 34° NW 23:41:10 10° WSW
Cosmos 1340 3.1 23:34:53 10° SSE 23:37:45 29° E 23:40:38 10° NNE
USA 186 3.4 23:36:55 10° ESE 23:39:08 18° ENE 23:41:23 10° NNE
USA 59 Rocket 1.8 23:38:22 10° N 23:40:52 16° NE 23:43:47 10° E
Iridium 4 Rocket 3.8 23:37:24 10° NNE 23:41:08 30° E 23:44:47 10° SE
Meteor PRIRODA 3.8 23:38:32 10° SE 23:41:41 42° ENE 23:44:50 10° N
Meteor 1-25 Rocket 4.5 23:36:17 10° SSW 23:42:00 80° W 23:47:39 10° N
Cosmos 2278 Rocket 3.9 23:38:43 10° N 23:42:18 17° NE 23:45:50 10° E
Landsat 7 4.5 23:40:02 10° S 23:44:39 60° W 23:49:19 10° NNW
CZ-4B R/B 4.0 23:40:55 10° SE 23:45:43 32° ENE 23:50:28 10° N
Cosmos 1151 Rocket 3.0 23:44:22 10° N 23:48:36 58° E 23:52:46 10° SSE
SPOT 1/Viking Rocket 3.6 23:44:12 10° SSE 23:49:19 66° ENE 23:54:28 10° N
Okean O Rocket 3.2 23:46:48 10° ESE 23:49:50 18° ENE 23:52:52 10° NNE
DMSP B5D1-3 4.5 23:45:22 10° NNE 23:50:28 83° ESE 23:55:32 10° SSW
Tsikada Rocket 4.0 23:45:45 10° N 23:52:00 66° E 23:58:16 10° SSE
Resurs 01 Rocket 2.4 23:50:36 10° SE 23:54:34 34° ENE 23:58:34 10° N
ARGOS Delta rocket 4.2 23:49:45 10° SSE 23:54:45 50° ENE 23:59:32 10° N
BlueWalker 3 3.5 23:51:41 10° NW 23:54:52 25° NNE 23:58:03 10° ENE
